Weather History for KCEW - January, 2013

Change the Weather History Date:

Tuesday, January 29, 2013

  Actual Average Record
Temperature  
Mean Temperature 65 °F -  
Max Temperature 75 °F 60 °F 78 °F (1950)
Min Temperature 55 °F 38 °F 18 °F (2014)
Growing Degree Days 15 (Base 50)    
Moisture  
Dew Point 62 °F    
Average Humidity 90    
Maximum Humidity 100    
Minimum Humidity 71    
Precipitation  
Precipitation 0.15 in - - ()
Sea Level Pressure  
Sea Level Pressure 30.11 in    
Wind  
Wind Speed 3 mph (SSE)    
Max Wind Speed 13 mph    
Max Gust Speed 24 mph    
Visibility 5 miles    
Events Fog , Rain    
Averages and records for this station are not official NWS values.
T = Trace of Precipitation, MM = Missing Value Source: NWS Daily Summary

Daily Weather History Graph

Daily Weather History Graph

Search for Another Location

Airport or City:

Trip Planner

Search our weather history database for the weather conditions in past years. The results will help you decide how hot, cold, wet, or windy it might be!

Date:

Astronomy

Jan. 29, 2013 Rise Set
Actual Time 6:39 AM CST 5:19 PM CST
Civil Twilight 6:13 AM CST 5:45 PM CST
Nautical Twilight 5:44 AM CST 6:14 PM CST
Astronomical Twilight 5:16 AM CST 6:42 PM CST
Moon 7:59 PM CST (1/29) 7:49 AM CST (1/29)
Length of Visible Light 11h 31m
Length of Day
10h 40m
Waning Gibbous, 93% of the Moon is Illuminated
Jan 29
Waning Gibbous
Feb 3
Last Quarter
Feb 10
New
Feb 17
First Quarter
Feb 25
Full

Hourly Weather History & Observations

Time (CST) Temp. Dew Point Humidity Pressure Visibility Wind Dir Wind Speed Gust Speed Precip Events Conditions
12:02 AM 60.8 °F 59.0 °F 94% 30.20 in 1.5 mi Calm Calm - N/A   Scattered Clouds
12:05 AM 59.0 °F 57.2 °F 94% 30.20 in 0.8 mi Calm Calm - N/A   Mostly Cloudy
12:19 AM 57.2 °F 57.2 °F 100% 30.20 in 1.0 mi Calm Calm - N/A   Mist
12:26 AM 59.0 °F 57.2 °F 94% 30.20 in 0.5 mi Calm Calm - N/A Fog Fog
12:53 AM 57.0 °F 55.9 °F 96% 30.19 in 0.2 mi Calm Calm - N/A Fog Fog
1:35 AM 55.4 °F 55.4 °F 100% 30.18 in 1.0 mi Calm Calm - N/A   Overcast
1:48 AM 55.4 °F 55.4 °F 100% 30.17 in 2.0 mi Calm Calm - N/A   Mostly Cloudy
1:53 AM 57.0 °F 55.9 °F 96% 30.17 in 2.0 mi Calm Calm - N/A   Mostly Cloudy
2:02 AM 55.4 °F 55.4 °F 100% 30.17 in 0.8 mi Calm Calm - N/A   Mostly Cloudy
2:10 AM 55.4 °F 55.4 °F 100% 30.18 in 0.5 mi Calm Calm - N/A Fog Fog
2:18 AM 55.4 °F 55.4 °F 100% 30.17 in 1.0 mi Calm Calm - N/A   Overcast
2:26 AM 59.0 °F 57.2 °F 94% 30.17 in 3.0 mi Calm Calm - N/A   Overcast
2:53 AM 60.1 °F 59.0 °F 96% 30.16 in 3.0 mi Calm Calm - N/A   Overcast
3:09 AM 59.0 °F 57.2 °F 94% 30.17 in 2.5 mi Calm Calm - N/A   Overcast
3:46 AM 60.8 °F 57.2 °F 88% 30.16 in 3.0 mi ENE 3.5 mph - N/A   Overcast
3:53 AM 60.1 °F 59.0 °F 96% 30.16 in 3.0 mi ENE 3.5 mph - N/A   Overcast
4:53 AM 61.0 °F 60.1 °F 97% 30.15 in 4.0 mi East 3.5 mph - N/A   Overcast
5:46 AM 60.8 °F 59.0 °F 94% 30.16 in 2.5 mi Calm Calm - N/A   Mostly Cloudy
5:53 AM 59.0 °F 57.9 °F 96% 30.16 in 2.5 mi ENE 3.5 mph - N/A   Scattered Clouds
6:02 AM 59.0 °F 57.2 °F 94% 30.16 in 1.0 mi ENE 3.5 mph - N/A   Scattered Clouds
6:17 AM 59.0 °F 57.2 °F 94% 30.16 in 2.0 mi Calm Calm - N/A   Scattered Clouds
6:25 AM 59.0 °F 57.2 °F 94% 30.16 in 2.0 mi Calm Calm - N/A   Mostly Cloudy
6:53 AM 60.1 °F 59.0 °F 96% 30.16 in 2.5 mi ENE 3.5 mph - N/A   Overcast
7:25 AM 62.6 °F 60.8 °F 94% 30.16 in 3.0 mi Calm Calm - N/A   Overcast
7:53 AM 63.0 °F 62.1 °F 97% 30.16 in 4.0 mi Calm Calm - N/A   Overcast
8:38 AM 66.2 °F 62.6 °F 88% 30.16 in 8.0 mi Calm Calm - N/A   Overcast
8:53 AM 69.1 °F 62.1 °F 78% 30.15 in 10.0 mi SSE 3.5 mph - N/A   Overcast
9:05 AM 71.6 °F 64.4 °F 78% 30.16 in 10.0 mi South 6.9 mph - N/A   Overcast
9:44 AM 71.6 °F 64.4 °F 78% 30.16 in 10.0 mi South 8.1 mph 19.6 mph N/A   Overcast
9:53 AM 71.1 °F 64.9 °F 81% 30.16 in 10.0 mi South 11.5 mph 17.3 mph N/A   Overcast
10:24 AM 71.6 °F 66.2 °F 83% 30.16 in 10.0 mi South 10.4 mph 19.6 mph N/A   Overcast
10:53 AM 72.0 °F 66.0 °F 81% 30.14 in 10.0 mi SSE 11.5 mph 19.6 mph N/A   Overcast
11:18 AM 73.4 °F 66.2 °F 78% 30.14 in 10.0 mi SSE 11.5 mph 17.3 mph N/A   Overcast
11:35 AM 73.4 °F 66.2 °F 78% 30.13 in 10.0 mi SSE 8.1 mph 17.3 mph N/A   Overcast
11:53 AM 73.0 °F 66.0 °F 79% 30.11 in 10.0 mi South 6.9 mph - N/A   Overcast
12:18 PM 73.4 °F 66.2 °F 78% 30.10 in 10.0 mi SSE 8.1 mph 17.3 mph N/A   Overcast
12:53 PM 73.9 °F 66.0 °F 76% 30.07 in 10.0 mi South 8.1 mph 19.6 mph N/A   Overcast
1:53 PM 75.9 °F 66.0 °F 71% 30.04 in 10.0 mi South 8.1 mph 19.6 mph N/A   Overcast
2:53 PM 73.9 °F 66.0 °F 76% 30.02 in 10.0 mi South 9.2 mph 20.7 mph N/A   Overcast
3:42 PM 73.4 °F 66.2 °F 78% 30.03 in 10.0 mi South 8.1 mph - N/A   Overcast
3:53 PM 72.0 °F 66.0 °F 81% 30.03 in 10.0 mi South 10.4 mph 18.4 mph N/A   Overcast
4:53 PM 71.1 °F 66.0 °F 84% 30.02 in 10.0 mi Variable 6.9 mph - N/A   Overcast
5:09 PM 71.6 °F 66.2 °F 83% 30.03 in 10.0 mi South 9.2 mph 17.3 mph N/A   Overcast
5:53 PM 70.0 °F 66.9 °F 90% 30.02 in 9.0 mi SSE 9.2 mph - N/A   Overcast
6:53 PM 70.0 °F 66.9 °F 90% 30.00 in 8.0 mi SSE 11.5 mph 19.6 mph 0.00 in   Overcast
7:53 PM 70.0 °F 66.9 °F 90% 30.00 in 7.0 mi SSE 8.1 mph 16.1 mph 0.01 in   Overcast
8:50 PM 69.8 °F 68.0 °F 94% 30.00 in 4.0 mi SSE 9.2 mph - 0.00 in   Overcast
8:53 PM 69.1 °F 68.0 °F 96% 29.99 in 4.0 mi SSE 9.2 mph - 0.00 in   Overcast
9:53 PM 70.0 °F 68.0 °F 93% 29.99 in 6.0 mi SSE 9.2 mph 19.6 mph N/A   Overcast
10:49 PM 71.6 °F 69.8 °F 94% 29.98 in 1.8 mi SSE 12.7 mph 19.6 mph 0.10 in Rain Heavy Rain
10:53 PM 71.1 °F 69.1 °F 93% 29.97 in 1.5 mi SSE 10.4 mph 19.6 mph 0.11 in Rain Heavy Rain
11:00 PM 71.6 °F 69.8 °F 94% 29.97 in 3.0 mi SSE 9.2 mph 19.6 mph 0.00 in Rain Light Rain
11:33 PM 69.8 °F 69.8 °F 100% 29.96 in 4.0 mi SSE 11.5 mph 18.4 mph 0.03 in   Overcast
11:53 PM 71.1 °F 69.1 °F 93% 29.95 in 4.0 mi South 11.5 mph 24.2 mph 0.03 in   Overcast